Location: Laterina
(43.5167°N, 11.7167°E)
Time: 23:15:10
(UTC+00:00)

Cosmos 1125 Rocket - Pass Details

Date: 27 June 2021
Orbit: 757 x 780 km, 74.0° (Epoch: 29 July)

Event Time Altitude Azimuth Distance (km) Brightness Sun altitude
Rises 01:53:44 0° 322° (NW) 3,252 7.0 -14.0°
Reaches altitude 10° 01:56:58 10° 302° (WNW) 2,324 5.9 -13.7°
Maximum altitude 02:00:06 16° 265° (W) 1,930 5.2 -13.3°
Enters shadow 02:01:26 15° 248° (WSW) 2,006 5.1 -13.2°
